GFSFLT1_prec_pwat_102.txt.gz
Precipitable_Water
0.75 0.80 0.92 0.99 0.98 0.87 0.73 0.82 1.04 1.13 1.20 1.25 1.31 1.38 1.49 1.61 1.59 1.59 1.71 1.60 1.48 1.26 1.11 0.84 0.78 0.79 0.86 0.84 0.82 0.88 0.87 0.88
0.81 0.84 0.93 0.99 0.97 0.83 0.67 0.79 0.98 1.11 1.10 1.13 1.17 1.25 1.40 1.51 1.61 1.62 1.63 1.64 1.48 1.32 1.10 0.88 0.84 0.87 0.91 0.93 0.90 0.86 0.87 0.91
0.79 0.85 0.90 0.96 0.93 0.76 0.66 0.78 0.91 1.05 1.11 1.15 1.21 1.31 1.41 1.46 1.60 1.59 1.64 1.61 1.49 1.37 1.15 0.98 0.96 0.98 1.03 1.00 0.98 0.90 0.88 0.89
0.69 0.79 0.84 0.95 0.89 0.71 0.66 0.77 0.84 0.98 1.11 1.12 1.22 1.33 1.38 1.42 1.50 1.53 1.56 1.51 1.48 1.40 1.26 1.15 1.11 1.06 1.08 1.07 1.04 0.95 0.88 0.94
0.71 0.77 0.82 0.90 0.86 0.74 0.70 0.76 0.80 0.96 1.09 1.07 1.14 1.16 1.17 1.35 1.47 1.52 1.52 1.55 1.50 1.43 1.32 1.26 1.21 1.14 1.13 1.11 1.08 1.03 0.98 0.90
0.69 0.74 0.86 0.91 0.83 0.72 0.68 0.74 0.79 0.93 1.06 1.10 1.14 1.17 1.24 1.36 1.45 1.45 1.47 1.46 1.45 1.42 1.35 1.35 1.31 1.27 1.23 1.17 1.14 1.09 1.02 0.96
0.75 0.82 0.92 0.87 0.80 0.74 0.67 0.68 0.73 0.90 1.01 1.11 1.12 1.15 1.20 1.24 1.33 1.37 1.40 1.41 1.42 1.44 1.45 1.42 1.41 1.37 1.31 1.27 1.22 1.13 1.04 1.03
0.69 0.77 0.82 0.80 0.75 0.68 0.65 0.65 0.64 0.85 0.96 1.03 1.11 1.17 1.20 1.22 1.28 1.32 1.35 1.35 1.37 1.39 1.44 1.42 1.37 1.34 1.32 1.32 1.30 1.19 1.12 1.07
0.68 0.76 0.82 0.80 0.75 0.64 0.62 0.63 0.63 0.77 0.89 0.96 1.03 1.11 1.16 1.19 1.26 1.29 1.31 1.34 1.35 1.41 1.40 1.40 1.41 1.34 1.37 1.36 1.28 1.23 1.20 1.15
0.75 0.80 0.83 0.84 0.74 0.61 0.59 0.60 0.65 0.76 0.84 0.88 0.91 0.95 0.97 0.98 1.06 1.16 1.24 1.31 1.36 1.36 1.35 1.31 1.29 1.28 1.30 1.29 1.25 1.19 1.20 1.16
0.80 0.79 0.80 0.84 0.76 0.65 0.61 0.62 0.63 0.74 0.83 0.86 0.87 0.91 0.96 0.99 1.02 1.06 1.15 1.22 1.29 1.30 1.30 1.29 1.23 1.19 1.19 1.18 1.16 1.17 1.17 1.16
0.92 0.82 0.84 0.85 0.81 0.69 0.61 0.61 0.61 0.72 0.80 0.84 0.86 0.88 0.91 0.96 0.96 1.01 1.06 1.12 1.20 1.23 1.24 1.22 1.16 1.11 1.08 1.10 1.06 1.06 1.06 1.07
0.90 0.92 0.90 0.86 0.80 0.77 0.65 0.64 0.63 0.68 0.77 0.82 0.82 0.87 0.89 0.88 0.90 0.94 1.00 0.98 1.05 1.09 1.12 1.08 1.04 1.02 1.02 1.01 1.00 1.02 1.03 1.02
0.94 0.99 1.01 0.98 0.86 0.83 0.78 0.72 0.69 0.72 0.77 0.79 0.80 0.82 0.85 0.89 0.93 0.95 0.94 0.95 0.94 0.96 0.95 0.93 0.93 0.95 0.94 0.96 0.98 0.97 0.99 1.01
0.79 0.99 1.03 1.04 1.06 0.99 0.87 0.84 0.78 0.75 0.77 0.79 0.79 0.80 0.82 0.89 0.94 0.97 0.97 0.99 0.98 0.97 0.97 0.97 0.96 0.98 0.97 0.95 0.97 0.96 0.97 0.99
0.78 0.81 1.01 0.99 1.05 1.06 1.10 1.03 0.97 0.94 0.81 0.77 0.78 0.84 0.86 0.86 0.89 0.94 0.97 0.98 0.99 1.01 1.00 1.00 1.01 1.01 0.99 0.97 0.97 0.98 0.97 0.98
0.80 0.79 0.83 0.95 1.00 1.08 1.09 1.10 1.11 1.08 0.99 0.89 0.83 0.84 0.86 0.85 0.86 0.89 0.92 0.93 0.93 0.94 0.94 0.95 0.95 0.96 0.96 0.97 0.96 0.94 0.96 0.94
0.79 0.78 0.83 0.85 0.93 1.04 1.02 1.07 1.15 1.15 1.11 1.05 0.99 0.92 0.87 0.86 0.88 0.89 0.90 0.91 0.95 0.94 0.93 0.93 0.90 0.91 0.93 0.96 0.98 0.97 0.96 0.95
0.71 0.76 0.76 0.81 0.83 0.85 0.94 1.13 1.14 1.14 1.09 1.08 1.10 1.02 0.95 0.94 0.95 0.92 0.94 0.97 0.95 0.94 0.92 0.93 0.94 0.93 0.95 0.97 0.99 0.98 0.93 0.93

GFSFLT1_prec_pwat_105.txt.gz
Precipitable_Water
0.58 0.67 0.80 0.88 0.98 1.05 1.05 0.96 0.79 0.88 1.05 1.14 1.17 1.25 1.34 1.49 1.61 1.56 1.53 1.54 1.55 1.52 1.46 1.34 1.20 0.78 0.67 0.68 0.79 0.87 0.86 0.90
0.66 0.76 0.84 0.91 0.98 1.01 1.00 0.90 0.75 0.85 0.93 1.02 1.06 1.13 1.24 1.44 1.57 1.58 1.56 1.55 1.54 1.48 1.33 1.15 1.00 0.60 0.59 0.64 0.78 0.83 0.88 0.95
0.69 0.76 0.86 0.91 0.92 0.98 0.99 0.88 0.76 0.85 0.88 1.02 1.10 1.13 1.25 1.39 1.52 1.60 1.57 1.56 1.50 1.44 1.25 1.08 0.82 0.65 0.67 0.66 0.77 0.83 0.90 0.93
0.62 0.74 0.79 0.86 0.87 0.94 0.98 0.84 0.78 0.84 0.85 0.97 1.09 1.13 1.25 1.31 1.39 1.49 1.56 1.55 1.48 1.47 1.28 1.08 0.83 0.77 0.74 0.76 0.83 0.83 0.81 0.88
0.65 0.72 0.78 0.79 0.85 0.98 0.99 0.83 0.79 0.83 0.83 0.93 0.98 0.98 1.06 1.20 1.35 1.50 1.55 1.54 1.49 1.42 1.30 1.12 0.91 0.88 0.83 0.80 0.86 0.85 0.84 0.82
0.64 0.69 0.77 0.86 0.91 0.96 0.97 0.78 0.79 0.81 0.80 0.95 0.99 1.02 1.13 1.25 1.37 1.43 1.50 1.50 1.51 1.46 1.37 1.20 1.01 0.99 0.98 0.97 1.00 0.98 0.95 0.89
0.68 0.76 0.83 0.86 0.97 0.99 0.92 0.74 0.75 0.79 0.81 0.95 1.03 1.05 1.13 1.17 1.28 1.35 1.43 1.47 1.45 1.44 1.41 1.30 1.16 1.14 1.12 1.09 1.09 1.05 1.02 0.98
0.68 0.71 0.75 0.81 0.90 0.95 0.88 0.73 0.69 0.74 0.80 0.94 1.02 1.10 1.15 1.16 1.24 1.34 1.35 1.39 1.38 1.38 1.40 1.34 1.25 1.23 1.24 1.24 1.18 1.14 1.12 1.05
0.71 0.73 0.76 0.81 0.90 0.95 0.81 0.68 0.66 0.69 0.77 0.89 0.99 1.08 1.14 1.20 1.24 1.31 1.39 1.40 1.39 1.43 1.42 1.37 1.36 1.33 1.30 1.31 1.27 1.25 1.22 1.16
0.79 0.81 0.80 0.82 0.93 0.92 0.74 0.68 0.65 0.67 0.75 0.85 0.90 0.95 1.03 1.08 1.15 1.26 1.34 1.38 1.42 1.43 1.42 1.37 1.36 1.36 1.37 1.30 1.24 1.26 1.22 1.21
0.82 0.85 0.85 0.96 0.98 0.94 0.74 0.71 0.64 0.67 0.74 0.82 0.85 0.88 0.92 0.93 1.02 1.08 1.17 1.26 1.34 1.39 1.41 1.39 1.37 1.38 1.39 1.35 1.32 1.31 1.25 1.20
0.82 0.90 0.93 1.02 1.05 0.95 0.73 0.69 0.66 0.68 0.74 0.79 0.81 0.83 0.89 0.93 0.94 1.01 1.09 1.17 1.23 1.30 1.34 1.35 1.35 1.35 1.36 1.30 1.28 1.28 1.21 1.20
0.86 0.90 1.00 1.05 1.04 0.98 0.83 0.74 0.66 0.68 0.75 0.78 0.78 0.81 0.84 0.88 0.91 0.96 1.04 1.09 1.16 1.20 1.24 1.27 1.30 1.29 1.23 1.20 1.17 1.15 1.10 1.09
0.93 1.01 1.01 1.07 1.07 1.02 0.90 0.78 0.77 0.79 0.76 0.78 0.77 0.77 0.80 0.82 0.88 0.92 0.97 1.02 1.06 1.09 1.12 1.13 1.15 1.12 1.12 1.11 1.05 1.01 1.02 1.02
0.83 0.96 1.00 1.08 1.11 1.06 1.00 0.93 0.88 0.85 0.84 0.83 0.81 0.78 0.78 0.82 0.89 0.93 0.94 0.95 0.96 1.00 1.05 1.07 1.09 1.11 1.06 1.03 0.98 0.97 1.00 1.02
0.82 0.84 0.97 1.04 1.08 1.09 1.07 1.04 1.02 0.97 0.88 0.85 0.86 0.91 0.89 0.85 0.86 0.90 0.94 0.97 0.97 0.99 1.00 1.00 0.98 0.97 0.97 0.95 0.94 0.95 0.95 0.94
0.81 0.85 0.87 0.97 1.05 1.05 1.07 1.11 1.10 1.13 1.06 0.94 0.92 0.93 0.92 0.91 0.90 0.87 0.90 0.91 0.95 0.97 0.97 0.98 0.97 0.98 0.99 0.98 0.98 0.98 0.96 0.91
0.78 0.83 0.87 0.86 0.93 1.03 1.01 1.03 1.14 1.16 1.12 1.12 1.12 1.02 0.94 0.93 0.93 0.92 0.90 0.88 0.90 0.88 0.90 0.92 0.92 0.94 0.96 0.97 0.99 0.97 0.94 0.91
0.75 0.76 0.82 0.82 0.86 0.87 0.96 1.02 1.09 1.19 1.15 1.15 1.15 1.14 1.09 1.04 0.97 0.93 0.92 0.96 0.94 0.92 0.91 0.91 0.90 0.91 0.95 0.99 1.00 0.97 0.92 0.90

GFSFLT1_prec_pwat_111.txt.gz
Precipitable_Water
0.45 0.50 0.55 0.57 0.65 0.74 0.81 0.91 1.04 1.14 1.23 1.24 1.13 0.99 1.01 1.10 1.24 1.32 1.40 1.50 1.57 1.58 1.53 1.51 1.47 1.42 1.38 1.29 1.14 0.98 0.92 0.97
0.46 0.56 0.61 0.64 0.70 0.74 0.79 0.88 1.01 1.12 1.13 1.13 1.01 0.85 0.93 1.01 1.19 1.31 1.38 1.48 1.59 1.56 1.57 1.52 1.49 1.40 1.36 1.27 1.17 1.01 0.92 1.00
0.43 0.53 0.60 0.65 0.70 0.77 0.82 0.90 0.99 1.14 1.17 1.15 1.01 0.92 0.95 1.00 1.18 1.26 1.35 1.49 1.53 1.54 1.54 1.50 1.45 1.40 1.36 1.28 1.20 1.10 0.90 0.97
0.43 0.48 0.55 0.63 0.71 0.77 0.83 0.89 0.99 1.10 1.18 1.12 1.00 0.95 0.95 0.97 1.12 1.20 1.30 1.47 1.51 1.52 1.52 1.50 1.46 1.43 1.34 1.27 1.22 1.14 0.84 0.94
0.42 0.46 0.52 0.59 0.73 0.85 0.89 0.95 1.01 1.09 1.14 1.03 0.89 0.78 0.76 0.94 1.09 1.19 1.30 1.42 1.51 1.55 1.51 1.48 1.48 1.42 1.34 1.33 1.27 1.11 0.95 0.80
0.46 0.47 0.53 0.62 0.75 0.80 0.90 1.01 1.05 1.09 1.11 1.03 0.87 0.80 0.85 1.00 1.09 1.16 1.26 1.36 1.45 1.52 1.49 1.47 1.44 1.44 1.40 1.35 1.27 1.13 1.01 0.81
0.59 0.54 0.58 0.64 0.78 0.83 0.92 0.98 1.04 1.10 1.11 1.03 0.83 0.77 0.85 0.95 1.05 1.10 1.19 1.29 1.37 1.48 1.47 1.46 1.44 1.44 1.40 1.38 1.33 1.14 0.95 0.89
0.60 0.60 0.59 0.66 0.74 0.83 0.92 0.98 1.00 1.11 1.10 1.02 0.82 0.81 0.91 0.97 1.04 1.09 1.14 1.24 1.33 1.40 1.43 1.41 1.41 1.42 1.40 1.33 1.19 0.97 0.82 0.81
0.62 0.66 0.69 0.70 0.77 0.83 0.91 0.98 1.03 1.12 1.11 0.92 0.81 0.87 0.93 1.01 1.09 1.15 1.14 1.28 1.36 1.43 1.39 1.42 1.39 1.37 1.30 1.14 0.90 0.76 0.77 0.79
0.63 0.69 0.77 0.78 0.81 0.85 0.91 1.00 1.07 1.13 1.08 0.82 0.76 0.88 0.94 0.96 1.02 1.05 1.12 1.30 1.35 1.41 1.41 1.41 1.36 1.22 1.19 1.04 0.89 0.87 0.87 0.90
0.66 0.72 0.83 0.89 0.88 0.93 0.99 1.05 1.11 1.13 0.98 0.79 0.77 0.88 0.95 0.98 0.99 1.00 1.10 1.21 1.32 1.38 1.40 1.38 1.28 1.24 1.14 1.03 0.97 0.96 0.95 0.99
0.69 0.77 0.90 0.95 0.96 0.98 1.01 1.06 1.13 1.09 0.89 0.77 0.78 0.87 0.94 0.97 0.97 1.01 1.10 1.17 1.24 1.33 1.32 1.32 1.30 1.26 1.26 1.16 1.07 1.03 1.02 1.04
0.70 0.78 0.92 0.98 1.00 1.00 1.04 1.12 1.14 1.07 0.87 0.77 0.78 0.88 0.92 0.93 0.93 0.98 1.09 1.11 1.25 1.30 1.29 1.35 1.30 1.31 1.25 1.20 1.18 1.15 1.12 1.10
0.66 0.74 0.87 0.98 1.05 1.07 1.11 1.18 1.15 1.05 0.88 0.76 0.77 0.85 0.88 0.89 0.92 0.95 1.03 1.09 1.15 1.21 1.26 1.31 1.32 1.33 1.28 1.28 1.25 1.21 1.21 1.20
0.65 0.72 0.80 0.95 1.06 1.14 1.17 1.19 1.19 1.07 0.91 0.76 0.72 0.81 0.86 0.89 0.93 0.95 0.97 1.02 1.05 1.09 1.17 1.22 1.28 1.32 1.33 1.29 1.25 1.23 1.22 1.18
0.67 0.73 0.81 0.88 0.99 1.10 1.14 1.17 1.21 1.12 0.98 0.83 0.78 0.80 0.86 0.89 0.90 0.94 0.98 1.00 1.00 1.01 1.05 1.11 1.17 1.20 1.23 1.24 1.26 1.21 1.17 1.14
0.70 0.78 0.78 0.88 0.93 1.02 1.09 1.13 1.13 1.10 1.05 0.94 0.92 0.90 0.85 0.85 0.86 0.88 0.92 0.95 0.98 1.01 1.01 0.99 0.97 1.04 1.12 1.16 1.22 1.14 1.17 1.12
0.66 0.72 0.76 0.83 0.92 0.95 1.01 1.07 1.11 1.09 1.10 1.02 1.02 1.04 0.99 0.93 0.89 0.87 0.86 0.88 0.94 0.94 0.98 1.01 1.01 1.02 1.05 1.08 1.14 1.17 1.12 1.13
0.63 0.71 0.73 0.76 0.85 0.89 0.93 0.99 1.08 1.06 1.04 1.01 1.10 1.12 1.10 1.10 1.06 0.99 0.95 0.90 0.87 0.90 0.93 0.96 0.98 1.03 1.06 1.07 1.08 1.06 1.03 1.00

GFSFLT1_prec_pwat_114.txt.gz
Precipitable_Water
0.49 0.48 0.50 0.56 0.60 0.68 0.81 0.90 0.96 1.04 1.09 1.15 1.22 1.28 1.26 1.06 1.05 1.09 1.18 1.28 1.35 1.40 1.52 1.55 1.58 1.52 1.47 1.42 1.36 1.30 1.08 0.99
0.50 0.48 0.52 0.63 0.66 0.70 0.79 0.85 0.95 0.98 0.99 1.02 1.08 1.11 1.17 1.01 1.00 1.05 1.16 1.29 1.36 1.45 1.52 1.53 1.56 1.50 1.45 1.40 1.36 1.20 1.07 1.05
0.45 0.47 0.56 0.62 0.65 0.73 0.79 0.85 0.95 0.98 1.02 1.10 1.14 1.17 1.16 0.99 1.00 1.03 1.16 1.27 1.32 1.45 1.51 1.52 1.52 1.49 1.45 1.38 1.35 1.22 1.09 1.04
0.43 0.48 0.52 0.61 0.66 0.74 0.79 0.85 0.96 1.01 1.10 1.14 1.17 1.21 1.14 0.94 0.92 0.99 1.15 1.25 1.31 1.45 1.51 1.54 1.49 1.50 1.41 1.37 1.37 1.28 1.09 1.02
0.47 0.46 0.48 0.56 0.67 0.80 0.83 0.90 0.95 1.03 1.10 1.08 1.05 1.05 0.94 0.86 0.88 1.02 1.15 1.25 1.33 1.40 1.48 1.52 1.51 1.48 1.44 1.39 1.40 1.31 1.19 0.98
0.53 0.51 0.49 0.54 0.71 0.79 0.84 0.92 0.98 1.04 1.09 1.11 1.08 1.06 1.00 0.88 0.90 1.02 1.12 1.24 1.32 1.40 1.47 1.49 1.49 1.49 1.44 1.41 1.39 1.34 1.24 1.12
0.62 0.66 0.59 0.61 0.75 0.79 0.84 0.91 0.96 1.03 1.10 1.13 1.09 1.07 0.92 0.80 0.87 0.97 1.09 1.19 1.25 1.33 1.42 1.49 1.50 1.46 1.45 1.42 1.40 1.36 1.27 1.22
0.63 0.66 0.67 0.69 0.73 0.77 0.85 0.92 0.93 1.01 1.08 1.10 1.12 1.09 0.87 0.79 0.87 0.94 1.02 1.10 1.15 1.30 1.40 1.46 1.46 1.43 1.42 1.45 1.40 1.37 1.30 1.23
0.64 0.66 0.73 0.76 0.74 0.76 0.83 0.91 0.93 1.01 1.06 1.08 1.15 1.06 0.86 0.84 0.94 0.95 1.04 1.09 1.15 1.30 1.40 1.46 1.46 1.43 1.45 1.44 1.39 1.39 1.36 1.22
0.64 0.69 0.74 0.78 0.82 0.79 0.83 0.90 0.96 1.04 1.08 1.13 1.14 0.95 0.85 0.88 0.95 0.97 0.97 1.03 1.20 1.31 1.40 1.41 1.42 1.42 1.42 1.42 1.40 1.39 1.38 1.26
0.67 0.71 0.74 0.79 0.87 0.89 0.88 0.93 0.97 1.06 1.11 1.16 1.08 0.92 0.90 0.93 0.96 0.92 0.93 1.04 1.16 1.29 1.34 1.38 1.39 1.38 1.38 1.38 1.37 1.39 1.33 1.26
0.67 0.68 0.76 0.80 0.91 0.93 0.92 0.93 1.00 1.06 1.11 1.16 0.97 0.90 0.90 0.93 0.93 0.92 0.96 1.06 1.15 1.26 1.32 1.34 1.35 1.32 1.34 1.33 1.31 1.22 1.08 0.91
0.65 0.69 0.73 0.78 0.87 0.96 0.96 0.98 1.02 1.10 1.17 1.09 0.94 0.93 0.91 0.90 0.90 0.92 0.99 1.04 1.11 1.18 1.32 1.31 1.34 1.28 1.27 1.24 1.08 0.98 0.95 0.89
0.62 0.64 0.68 0.77 0.85 0.97 1.00 1.04 1.07 1.15 1.13 1.03 0.94 0.92 0.89 0.89 0.90 0.92 0.96 1.03 1.06 1.15 1.20 1.28 1.31 1.29 1.21 1.15 1.05 1.01 1.05 1.05
0.63 0.63 0.68 0.75 0.86 0.95 0.99 1.07 1.14 1.15 1.10 1.04 0.95 0.94 0.91 0.90 0.91 0.91 0.93 1.01 1.04 1.09 1.14 1.23 1.31 1.31 1.29 1.27 1.23 1.21 1.16 1.14
0.63 0.64 0.67 0.75 0.83 0.92 0.99 1.05 1.10 1.18 1.10 1.04 0.95 0.96 0.93 0.90 0.90 0.92 0.94 0.95 1.00 1.06 1.09 1.15 1.21 1.26 1.31 1.28 1.24 1.22 1.21 1.17
0.63 0.62 0.67 0.73 0.84 0.86 0.95 1.02 1.09 1.16 1.16 1.05 1.02 0.95 0.90 0.88 0.88 0.89 0.91 0.93 0.96 0.98 0.99 1.04 1.11 1.19 1.23 1.25 1.26 1.21 1.23 1.20
0.59 0.62 0.64 0.68 0.77 0.88 0.90 0.97 1.07 1.10 1.15 1.12 1.09 1.02 0.92 0.87 0.87 0.87 0.86 0.89 0.93 0.93 0.95 0.97 0.98 1.02 1.10 1.12 1.14 1.14 1.15 1.14
0.60 0.61 0.64 0.66 0.70 0.82 0.90 0.95 0.99 1.05 1.09 1.08 1.05 1.07 1.05 0.99 0.91 0.86 0.86 0.89 0.89 0.91 0.92 0.95 0.97 0.99 1.01 1.04 1.08 1.09 1.10 1.07

GFSFLT1_prec_pwat_117.txt.gz
Precipitable_Water
0.53 0.54 0.54 0.55 0.57 0.58 0.64 0.79 0.96 1.10 1.15 1.14 1.15 1.15 1.19 1.25 1.30 1.18 1.04 1.11 1.21 1.29 1.37 1.41 1.50 1.53 1.51 1.47 1.46 1.45 1.36 1.29
0.58 0.59 0.59 0.59 0.59 0.69 0.68 0.74 0.94 1.06 1.04 1.02 1.00 0.98 1.10 1.19 1.28 1.21 1.02 1.05 1.13 1.24 1.31 1.34 1.40 1.48 1.51 1.48 1.46 1.38 1.29 1.26
0.55 0.58 0.59 0.59 0.61 0.75 0.71 0.77 0.93 1.03 1.05 1.05 1.05 1.08 1.12 1.21 1.27 1.21 1.02 0.99 1.10 1.20 1.24 1.28 1.37 1.53 1.51 1.48 1.46 1.34 1.30 1.28
0.44 0.47 0.52 0.56 0.68 0.76 0.76 0.79 0.90 1.02 1.06 1.09 1.10 1.14 1.14 1.13 1.16 1.14 1.00 0.98 1.08 1.21 1.25 1.35 1.43 1.47 1.48 1.44 1.46 1.32 1.22 1.27
0.38 0.42 0.49 0.56 0.65 0.85 0.84 0.84 0.91 1.05 1.08 1.03 1.05 0.98 0.92 1.05 1.12 1.12 0.97 0.99 1.08 1.18 1.26 1.32 1.41 1.48 1.49 1.46 1.51 1.37 1.28 1.16
0.56 0.57 0.58 0.59 0.63 0.80 0.88 0.90 0.94 1.05 1.05 1.06 1.06 1.05 1.05 1.07 1.10 1.08 0.95 0.98 1.12 1.17 1.25 1.33 1.38 1.44 1.51 1.46 1.46 1.39 1.36 1.25
0.66 0.71 0.73 0.62 0.78 0.83 0.89 0.89 0.96 1.04 1.05 1.10 1.07 1.06 1.02 1.02 1.07 0.98 0.89 1.00 1.11 1.22 1.28 1.29 1.35 1.42 1.48 1.49 1.47 1.43 1.39 1.34
0.69 0.74 0.74 0.70 0.81 0.87 0.82 0.85 0.93 1.02 1.07 1.12 1.13 1.10 1.09 1.07 1.06 0.93 0.87 0.98 1.07 1.17 1.25 1.25 1.30 1.40 1.47 1.49 1.46 1.43 1.39 1.33
0.70 0.71 0.76 0.78 0.85 0.89 0.83 0.86 0.94 1.02 1.10 1.14 1.14 1.13 1.13 1.11 1.02 0.92 0.89 0.95 1.03 1.11 1.20 1.22 1.29 1.42 1.46 1.48 1.45 1.44 1.42 1.39
0.73 0.74 0.76 0.78 0.79 0.84 0.86 0.88 0.96 1.02 1.09 1.14 1.13 1.14 1.12 1.08 0.94 0.96 0.97 0.97 0.98 1.01 1.09 1.19 1.34 1.41 1.46 1.45 1.43 1.39 1.42 1.40
0.69 0.70 0.69 0.75 0.79 0.84 0.94 0.95 0.95 1.02 1.11 1.15 1.14 1.16 1.17 1.03 0.95 0.99 0.96 0.94 0.96 1.00 1.08 1.22 1.32 1.40 1.42 1.42 1.39 1.41 1.39 1.40
0.66 0.65 0.69 0.73 0.81 0.83 0.92 0.96 0.96 0.99 1.11 1.13 1.14 1.14 1.13 0.97 1.00 1.00 0.94 0.93 0.97 1.02 1.08 1.18 1.28 1.33 1.38 1.37 1.36 1.37 1.37 1.35
0.66 0.65 0.68 0.71 0.78 0.83 0.90 0.98 1.00 1.03 1.09 1.12 1.14 1.16 1.04 0.96 1.02 0.99 0.94 0.92 0.99 1.03 1.07 1.18 1.28 1.33 1.35 1.33 1.32 1.35 1.35 1.32
0.64 0.63 0.63 0.69 0.77 0.83 0.86 1.00 1.04 1.06 1.10 1.12 1.13 1.08 0.98 0.99 1.02 0.96 0.92 0.92 0.97 1.02 1.07 1.13 1.27 1.31 1.31 1.32 1.33 1.33 1.34 1.34
0.61 0.61 0.61 0.66 0.76 0.83 0.89 0.96 1.04 1.10 1.09 1.10 1.09 1.00 0.96 1.04 1.06 0.98 0.91 0.92 0.95 1.00 1.07 1.10 1.21 1.32 1.30 1.30 1.28 1.26 1.23 1.20
0.60 0.61 0.64 0.67 0.71 0.81 0.90 0.96 1.02 1.05 1.05 1.07 1.04 0.99 1.02 1.12 1.05 0.98 0.93 0.92 0.95 1.00 1.02 1.10 1.16 1.22 1.27 1.28 1.22 1.14 1.10 1.04
0.60 0.59 0.61 0.64 0.69 0.76 0.88 0.92 0.97 1.03 1.04 1.03 1.06 1.01 1.09 1.10 1.03 1.01 0.93 0.93 0.94 0.96 0.97 1.02 1.08 1.14 1.26 1.25 1.26 1.20 1.17 1.15
0.59 0.58 0.60 0.62 0.65 0.73 0.79 0.89 0.93 0.97 1.02 1.01 1.01 1.08 1.06 1.02 1.04 0.99 0.93 0.93 0.95 0.94 0.95 0.98 0.98 1.08 1.19 1.22 1.24 1.24 1.20 1.19
0.63 0.58 0.57 0.60 0.63 0.67 0.74 0.85 0.91 0.91 0.94 0.99 1.02 1.06 1.06 1.02 1.01 0.96 0.92 0.94 0.94 0.94 0.94 0.96 0.97 1.01 1.06 1.09 1.12 1.13 1.14 1.14

GFSFLT1_prec_pwat_120.txt.gz
Precipitable_Water
0.59 0.58 0.54 0.51 0.52 0.54 0.71 0.84 0.97 1.04 1.16 1.18 1.16 1.14 1.15 1.21 1.19 1.20 1.29 1.31 1.12 1.08 1.15 1.29 1.43 1.44 1.40 1.40 1.41 1.49 1.46 1.42
0.60 0.60 0.59 0.57 0.58 0.60 0.64 0.83 0.94 1.03 1.05 1.06 1.07 1.03 1.08 1.16 1.20 1.20 1.23 1.30 1.14 1.04 1.07 1.20 1.35 1.36 1.37 1.39 1.42 1.40 1.42 1.44
0.61 0.62 0.63 0.63 0.62 0.66 0.70 0.72 0.91 0.99 1.03 1.10 1.14 1.13 1.12 1.13 1.17 1.19 1.24 1.29 1.17 1.04 1.04 1.10 1.25 1.31 1.32 1.37 1.40 1.38 1.39 1.39
0.55 0.59 0.61 0.64 0.65 0.69 0.74 0.79 0.84 1.00 1.08 1.15 1.15 1.17 1.12 1.06 1.09 1.12 1.18 1.25 1.19 1.02 1.03 1.09 1.18 1.30 1.24 1.34 1.41 1.40 1.29 1.30
0.50 0.52 0.55 0.56 0.61 0.68 0.75 0.80 0.85 1.03 1.14 1.07 1.03 0.97 0.92 1.02 1.05 1.11 1.16 1.22 1.14 1.06 1.01 1.10 1.15 1.22 1.23 1.29 1.46 1.43 1.39 1.20
0.38 0.42 0.44 0.51 0.58 0.64 0.71 0.79 0.91 1.06 1.07 1.10 1.06 1.04 1.02 1.09 1.10 1.09 1.15 1.19 1.15 1.02 1.00 1.09 1.13 1.20 1.27 1.32 1.43 1.45 1.42 1.30
0.51 0.54 0.58 0.63 0.76 0.77 0.82 0.86 0.91 1.08 1.05 1.11 1.09 1.05 1.08 1.04 1.05 1.07 1.08 1.13 1.12 1.04 1.02 1.06 1.14 1.19 1.24 1.30 1.37 1.45 1.45 1.37
0.67 0.73 0.81 0.81 0.89 0.95 0.98 0.94 0.93 1.11 1.08 1.10 1.10 1.11 1.18 1.13 1.06 1.07 1.08 1.10 1.05 1.01 1.05 1.05 1.11 1.21 1.26 1.34 1.32 1.40 1.40 1.37
0.82 0.93 0.94 0.90 1.00 0.98 0.94 0.91 0.91 1.16 1.10 1.10 1.15 1.16 1.22 1.20 1.15 1.12 1.11 1.09 1.03 1.10 1.09 1.07 1.12 1.17 1.23 1.27 1.29 1.44 1.45 1.43
0.84 0.83 0.81 0.80 0.80 0.85 0.85 0.88 0.90 1.00 1.05 1.08 1.16 1.22 1.23 1.21 1.16 1.18 1.16 1.11 1.07 1.07 1.08 1.06 1.06 1.07 1.13 1.22 1.34 1.38 1.44 1.45
0.81 0.76 0.73 0.72 0.75 0.80 0.83 0.90 0.94 0.96 1.00 1.11 1.19 1.20 1.23 1.20 1.18 1.15 1.13 1.05 1.07 1.05 0.99 0.97 1.00 1.08 1.21 1.28 1.35 1.44 1.43 1.43
0.74 0.71 0.69 0.71 0.75 0.78 0.81 0.86 0.95 0.99 1.00 1.11 1.19 1.19 1.21 1.21 1.17 1.20 1.10 1.07 1.07 0.99 0.94 0.93 1.00 1.09 1.23 1.31 1.35 1.39 1.37 1.37
0.71 0.67 0.67 0.68 0.70 0.75 0.78 0.84 0.92 1.01 1.06 1.11 1.14 1.21 1.20 1.17 1.18 1.18 1.08 1.05 1.04 0.98 0.94 0.95 1.00 1.07 1.21 1.29 1.34 1.37 1.35 1.33
0.65 0.61 0.60 0.63 0.68 0.73 0.77 0.82 0.88 1.02 1.08 1.09 1.13 1.13 1.12 1.15 1.18 1.13 1.09 1.08 1.03 0.98 0.95 0.94 0.99 1.06 1.18 1.30 1.34 1.33 1.34 1.35
0.65 0.59 0.57 0.61 0.67 0.74 0.79 0.85 0.90 0.99 1.05 1.11 1.10 1.12 1.14 1.17 1.18 1.07 1.08 1.09 1.03 0.96 0.94 0.95 1.02 1.09 1.22 1.24 1.30 1.32 1.32 1.35
0.57 0.57 0.57 0.60 0.63 0.68 0.78 0.87 0.90 0.96 1.02 1.06 1.07 1.12 1.16 1.17 1.09 1.12 1.11 1.11 1.04 0.97 0.94 0.97 1.03 1.11 1.23 1.22 1.26 1.29 1.28 1.30
0.62 0.54 0.54 0.58 0.62 0.65 0.71 0.80 0.89 0.96 0.99 1.02 1.05 1.07 1.11 1.11 1.08 1.11 1.11 1.13 1.02 0.96 0.94 0.95 0.99 1.06 1.16 1.24 1.25 1.25 1.25 1.22
0.62 0.58 0.54 0.56 0.62 0.65 0.64 0.70 0.82 0.87 0.94 0.98 1.01 1.05 1.06 1.06 1.10 1.12 1.16 1.13 1.02 0.95 0.94 0.95 0.96 1.04 1.13 1.20 1.26 1.25 1.19 1.17
0.64 0.59 0.56 0.56 0.58 0.59 0.62 0.65 0.70 0.76 0.89 0.92 0.97 1.00 1.03 0.98 1.02 1.15 1.18 1.14 1.04 0.98 0.95 0.95 0.97 1.00 1.06 1.16 1.19 1.18 1.16 1.17

GFSFLT1_prec_pwat_123.txt.gz
Precipitable_Water
0.58 0.55 0.52 0.49 0.45 0.51 0.72 0.88 0.98 1.07 1.11 1.15 1.16 1.13 1.13 1.17 1.18 1.20 1.26 1.30 1.34 1.28 1.14 1.08 1.14 1.23 1.33 1.37 1.29 1.33 1.36 1.40
0.62 0.61 0.60 0.57 0.52 0.51 0.70 0.87 1.00 1.08 1.10 1.04 1.05 0.98 1.07 1.10 1.15 1.21 1.23 1.29 1.35 1.31 1.20 1.10 1.09 1.10 1.22 1.30 1.31 1.26 1.31 1.43
0.61 0.64 0.65 0.64 0.61 0.59 0.66 0.79 0.94 1.03 1.08 1.08 1.09 1.02 1.08 1.15 1.18 1.20 1.21 1.26 1.33 1.34 1.22 1.12 1.06 1.06 1.14 1.26 1.25 1.22 1.28 1.38
0.52 0.61 0.66 0.67 0.65 0.65 0.69 0.79 0.93 1.03 1.13 1.17 1.16 1.15 1.16 1.14 1.13 1.14 1.19 1.23 1.29 1.33 1.26 1.17 1.08 1.07 1.07 1.20 1.24 1.19 1.19 1.33
0.47 0.52 0.62 0.65 0.66 0.71 0.74 0.80 0.93 1.02 1.11 1.11 1.03 0.93 0.90 1.04 1.09 1.15 1.16 1.22 1.28 1.32 1.28 1.21 1.11 1.09 1.08 1.14 1.26 1.21 1.25 1.21
0.41 0.45 0.55 0.62 0.66 0.72 0.75 0.78 0.89 1.00 1.09 1.07 1.03 0.96 1.06 1.12 1.11 1.13 1.11 1.16 1.25 1.29 1.28 1.22 1.10 1.10 1.12 1.13 1.19 1.20 1.27 1.26
0.34 0.47 0.49 0.59 0.61 0.69 0.76 0.77 0.81 0.95 1.02 1.05 1.05 1.00 1.06 1.05 1.06 1.06 1.07 1.13 1.20 1.23 1.26 1.23 1.12 1.11 1.11 1.15 1.19 1.23 1.23 1.27
0.50 0.54 0.64 0.74 0.77 0.80 0.83 0.86 0.89 1.00 1.02 1.02 1.09 1.09 1.13 1.09 1.05 1.05 1.09 1.11 1.17 1.16 1.21 1.14 1.10 1.13 1.12 1.15 1.16 1.21 1.25 1.26
0.69 0.72 0.77 0.84 0.91 0.94 0.96 0.97 0.99 1.09 1.12 1.07 1.15 1.20 1.19 1.15 1.14 1.14 1.12 1.15 1.17 1.19 1.20 1.15 1.12 1.13 1.14 1.16 1.16 1.18 1.22 1.25
0.78 0.84 0.87 0.86 0.87 0.93 0.98 0.97 1.00 1.11 1.13 1.14 1.17 1.21 1.20 1.20 1.21 1.22 1.20 1.22 1.21 1.19 1.20 1.11 1.14 1.11 1.11 1.13 1.11 1.10 1.15 1.25
0.81 0.86 0.87 0.91 0.93 0.88 0.86 0.85 0.88 1.00 1.13 1.17 1.17 1.22 1.20 1.24 1.26 1.20 1.21 1.23 1.22 1.20 1.16 1.14 1.10 1.10 1.09 1.09 1.09 1.14 1.22 1.28
0.81 0.79 0.75 0.75 0.78 0.78 0.80 0.82 0.85 0.92 1.06 1.10 1.14 1.18 1.20 1.24 1.22 1.24 1.26 1.22 1.22 1.22 1.10 1.11 1.04 1.02 1.05 1.07 1.10 1.17 1.23 1.28
0.82 0.85 0.77 0.74 0.75 0.74 0.75 0.78 0.81 0.90 1.01 1.03 1.06 1.11 1.21 1.25 1.22 1.22 1.24 1.19 1.23 1.17 1.09 1.03 0.98 0.98 1.03 1.05 1.11 1.20 1.25 1.25
0.80 0.80 0.73 0.71 0.72 0.74 0.75 0.78 0.81 0.89 0.97 1.02 1.06 1.16 1.21 1.22 1.23 1.21 1.25 1.22 1.19 1.07 1.05 0.99 0.96 0.98 1.00 1.04 1.10 1.19 1.26 1.34
0.83 0.76 0.68 0.68 0.68 0.69 0.75 0.80 0.85 0.88 0.93 1.00 1.07 1.11 1.18 1.18 1.21 1.24 1.23 1.23 1.13 1.06 1.04 1.01 0.99 0.99 1.00 1.06 1.15 1.24 1.28 1.35
0.76 0.75 0.69 0.65 0.64 0.66 0.70 0.79 0.85 0.88 0.91 0.95 1.01 1.10 1.17 1.19 1.21 1.22 1.21 1.17 1.10 1.06 1.03 1.04 1.03 1.01 1.03 1.07 1.15 1.20 1.26 1.29
0.65 0.64 0.64 0.62 0.62 0.64 0.65 0.67 0.76 0.86 0.87 0.90 0.98 1.06 1.10 1.14 1.19 1.19 1.19 1.15 1.09 1.05 1.04 1.08 1.00 1.01 1.04 1.07 1.12 1.19 1.26 1.26
0.68 0.61 0.59 0.57 0.58 0.59 0.59 0.62 0.65 0.70 0.79 0.89 0.92 1.00 1.05 1.06 1.13 1.17 1.16 1.14 1.09 1.01 1.05 1.07 0.99 1.01 1.02 1.06 1.15 1.21 1.22 1.25
0.65 0.62 0.58 0.57 0.58 0.58 0.57 0.58 0.60 0.62 0.67 0.78 0.89 0.94 0.99 1.04 1.08 1.07 1.14 1.16 1.08 1.06 1.06 1.08 1.01 1.00 1.03 1.06 1.14 1.18 1.20 1.23